Weather History for KSAV - March, 2014

Change the Weather History Date:

Monday, March 24, 2014

  Actual Average Record
Temperature  
Mean Temperature 56 °F 61 °F  
Max Temperature 62 °F 73 °F 92 °F (1929)
Min Temperature 49 °F 49 °F 31 °F (1968)
Degree Days  
Heating Degree Days 9 5  
Month to date heating degree days 215 177  
Since 1 July heating degree days 1596 1694  
Cooling Degree Days 0 1  
Month to date cooling degree days 6 24  
Year to date cooling degree days 24 34  
Growing Degree Days 5 (Base 50)    
Moisture  
Dew Point 37 °F    
Average Humidity 51    
Maximum Humidity 66    
Minimum Humidity 35    
Precipitation  
Precipitation 0.03 in 0.11 in 2.13 in (1957)
Month to date precipitation 2.31 2.85  
Year to date precipitation 6.42 9.33  
Sea Level Pressure  
Sea Level Pressure 30.13 in    
Wind  
Wind Speed 11 mph (ENE)    
Max Wind Speed 22 mph    
Max Gust Speed 26 mph    
Visibility 10 miles    
Events Rain    
T = Trace of Precipitation, MM = Missing Value Source: NWS Daily Summary

Daily Weather History Graph

Daily Weather History Graph

Search for Another Location

Airport or City:

Trip Planner

Search our weather history database for the weather conditions in past years. The results will help you decide how hot, cold, wet, or windy it might be!

Date:

Astronomy

Mar. 24, 2014 Rise Set
Actual Time 7:23 AM EDT 7:39 PM EDT
Civil Twilight 6:58 AM EDT 8:03 PM EDT
Nautical Twilight 6:30 AM EDT 8:32 PM EDT
Astronomical Twilight 6:01 AM EDT 9:01 PM EDT
Moon 2:33 AM EDT (3/24) 1:21 PM EDT (3/24)
Length of Visible Light 13h 04m
Length of Day
12h 15m
Last Quarter, 43% of the Moon is Illuminated
Mar 24
Last Quarter
Mar 30
New
Apr 7
First Quarter
Apr 15
Full
Apr 22
Last Quarter

Hourly Weather History & Observations

Time (EDT) Temp. Dew Point Humidity Pressure Visibility Wind Dir Wind Speed Gust Speed Precip Events Conditions
12:53 AM 57.0 °F 42.1 °F 57% 30.08 in 10.0 mi NNE 11.5 mph - N/A   Clear
1:53 AM 55.9 °F 41.0 °F 57% 30.11 in 10.0 mi NNE 11.5 mph - N/A   Mostly Cloudy
2:53 AM 55.9 °F 39.9 °F 55% 30.11 in 10.0 mi NNE 15.0 mph 18.4 mph N/A   Overcast
3:53 AM 55.0 °F 39.0 °F 55% 30.13 in 10.0 mi NNE 10.4 mph 19.6 mph N/A   Overcast
4:53 AM 53.1 °F 39.0 °F 59% 30.12 in 10.0 mi NE 8.1 mph - N/A   Overcast
5:53 AM 52.0 °F 36.0 °F 54% 30.14 in 10.0 mi NE 12.7 mph - N/A   Overcast
6:53 AM 50.0 °F 36.0 °F 59% 30.15 in 10.0 mi NE 9.2 mph - N/A   Scattered Clouds
7:53 AM 50.0 °F 35.1 °F 57% 30.16 in 10.0 mi NE 9.2 mph - N/A   Scattered Clouds
8:53 AM 51.1 °F 37.0 °F 59% 30.19 in 10.0 mi ENE 12.7 mph 19.6 mph N/A   Scattered Clouds
9:53 AM 52.0 °F 30.9 °F 45% 30.21 in 10.0 mi ENE 13.8 mph 23.0 mph N/A   Scattered Clouds
10:53 AM 55.9 °F 30.9 °F 39% 30.23 in 10.0 mi East 11.5 mph 20.7 mph N/A   Mostly Cloudy
11:53 AM 55.9 °F 28.9 °F 36% 30.23 in 10.0 mi ENE 12.7 mph - N/A   Mostly Cloudy
12:53 PM 60.1 °F 32.0 °F 35% 30.20 in 10.0 mi East 8.1 mph - N/A   Scattered Clouds
1:53 PM 60.1 °F 35.1 °F 39% 30.17 in 10.0 mi ESE 13.8 mph 18.4 mph N/A   Mostly Cloudy
2:53 PM 60.1 °F 35.1 °F 39% 30.16 in 10.0 mi East 12.7 mph 18.4 mph N/A   Mostly Cloudy
3:53 PM 59.0 °F 36.0 °F 42% 30.11 in 10.0 mi East 12.7 mph 18.4 mph N/A   Mostly Cloudy
4:53 PM 59.0 °F 36.0 °F 42% 30.09 in 10.0 mi East 9.2 mph - N/A   Mostly Cloudy
5:53 PM 57.0 °F 36.0 °F 45% 30.08 in 10.0 mi ESE 12.7 mph 16.1 mph N/A   Mostly Cloudy
6:53 PM 55.0 °F 36.0 °F 49% 30.09 in 10.0 mi East 12.7 mph - N/A   Mostly Cloudy
7:53 PM 52.0 °F 37.0 °F 57% 30.07 in 10.0 mi East 11.5 mph - N/A   Mostly Cloudy
8:53 PM 51.1 °F 37.9 °F 61% 30.08 in 10.0 mi East 8.1 mph - N/A   Mostly Cloudy
9:53 PM 53.1 °F 39.9 °F 61% 30.06 in 10.0 mi East 11.5 mph - N/A   Overcast
10:53 PM 53.1 °F 42.1 °F 66% 30.04 in 10.0 mi ENE 9.2 mph - N/A   Overcast
11:53 PM 52.0 °F 44.1 °F 74% 30.04 in 10.0 mi ENE 5.8 mph - 0.00 in Rain Light Rain